Theta_e
311 311 311 311 311 311 311 311 311 311 311 311 311 311 311 310 310 310 309 308 308 308 309 310 310 310 311 311 311 311 311 311 313 314 316 318 315 314 314 313 313 313 314 314 314 315 315 316 315 315 316 316 317 318 317 315 315 321 329 326 320 321 317 317 320 319 320 319 317 316 317 317 317 317 316 316 316 315 315 315 315 314 314 314 314 313 313 313
310 310 310 310 311 310 310 311 311 311 310 310 310 310 309 308 308 308 308 308 308 309 310 310 310 311 310 311 311 311 311 311 314 316 316 315 314 313 313 313 314 314 314 314 314 315 315 316 315 315 315 316 317 318 319 318 316 319 329 326 318 320 316 315 318 316 317 318 316 317 317 316 317 317 317 316 315 315 315 314 314 314 314 313 313 313 313 313
308 308 309 308 309 309 309 309 309 309 309 308 308 308 307 308 308 308 308 308 309 309 310 310 311 311 310 311 311 311 311 311 314 318 315 313 314 314 313 313 314 314 314 314 314 314 315 315 315 315 315 316 316 318 318 319 317 316 324 326 319 317 315 315 317 316 317 317 315 317 316 316 316 316 317 316 314 314 315 315 314 314 314 314 313 313 313 313
307 307 307 307 307 307 307 307 308 308 307 307 307 307 307 307 308 308 308 308 309 309 310 310 310 310 311 311 311 311 311 312 316 317 314 313 314 313 313 314 313 314 314 313 314 314 315 315 315 315 315 316 315 316 317 317 317 316 321 324 317 314 315 316 317 316 317 316 316 316 316 316 316 316 316 315 316 316 314 314 315 315 315 314 314 313 313 312
309 308 308 308 308 307 307 307 308 308 307 307 307 307 308 308 308 308 309 309 309 310 310 310 310 311 311 311 311 311 312 316 318 316 313 313 314 313 314 314 313 314 313 313 314 315 316 316 315 315 315 315 316 316 317 316 316 316 318 318 316 315 315 316 317 316 315 316 316 315 315 316 316 316 316 315 317 318 314 314 315 315 315 315 314 314 313 312
311 310 310 309 309 308 308 308 308 308 308 308 308 308 308 308 308 309 309 309 309 310 310 310 310 310 310 311 311 310 313 318 317 314 314 313 313 314 313 313 313 313 313 314 314 315 316 316 315 315 315 314 316 317 317 317 316 318 317 315 316 316 316 317 316 316 315 315 315 315 316 316 316 316 316 315 316 317 315 314 314 313 313 314 313 313 312 313
311 311 311 311 311 310 310 309 309 308 308 308 308 308 308 308 309 309 309 309 309 309 310 310 310 310 311 310 310 312 315 316 314 313 314 313 313 313 313 313 313 313 313 313 314 315 315 316 316 315 315 316 316 316 317 317 317 319 318 316 317 317 317 317 317 317 315 315 315 315 316 315 316 316 316 315 315 316 315 314 313 312 312 312 312 312 312 312
309 309 310 310 310 311 311 311 310 309 309 309 308 308 308 308 309 309 309 309 309 310 309 310 310 310 310 310 312 315 315 315 314 314 313 313 313 313 313 313 314 314 315 314 314 315 315 316 316 315 316 316 316 316 316 318 317 319 319 317 317 317 316 317 317 317 316 315 315 315 316 315 316 315 315 315 315 315 314 313 312 311 312 311 311 311 312 312
308 308 309 309 309 309 310 310 310 311 310 310 309 309 309 308 309 309 309 309 309 309 309 310 310 310 310 310 313 315 315 316 315 314 313 312 313 313 314 314 316 317 316 316 316 316 316 316 316 316 315 315 316 316 316 319 319 317 317 316 316 317 316 316 316 316 316 315 315 316 315 315 316 315 315 314 314 314 313 312 311 311 311 311 311 311 312 312
308 308 308 308 308 308 309 309 309 310 311 311 310 310 309 309 309 309 309 309 309 309 309 310 310 310 310 311 314 314 316 317 315 313 313 313 314 314 315 316 317 318 317 317 317 316 316 316 316 316 315 315 316 316 316 319 318 316 316 316 316 317 317 316 316 316 316 316 316 316 316 316 315 315 315 314 313 313 313 312 311 311 311 311 312 312 312 312
308 308 308 308 308 308 308 308 308 309 309 310 311 311 310 310 309 309 309 309 309 309 309 310 310 310 311 312 315 316 317 317 315 314 314 314 315 315 316 316 317 318 318 318 318 317 317 316 316 315 316 316 316 317 316 316 317 316 316 317 317 317 317 316 316 316 316 316 316 316 315 315 314 315 316 314 313 313 312 312 311 311 312 312 312 312 312 312
308 308 308 308 308 308 308 308 308 308 308 309 310 310 311 310 310 310 309 309 309 309 309 310 309 309 310 310 312 315 318 318 316 315 315 314 314 314 315 315 317 317 318 319 318 318 317 317 317 316 316 316 317 317 316 316 316 316 316 318 320 318 318 317 315 316 316 316 316 315 316 317 316 314 315 313 313 312 311 311 311 312 312 312 312 312 312 312
308 308 308 308 308 308 308 308 308 307 307 307 308 309 310 310 311 310 310 310 309 309 309 309 309 309 310 311 311 313 317 318 316 315 314 314 313 314 315 315 316 317 318 318 318 318 318 318 317 316 316 316 317 316 316 316 315 318 315 316 321 322 323 319 315 316 316 315 316 315 318 325 322 313 313 313 312 311 311 311 311 312 312 312 312 312 312 312
307 307 308 308 308 308 308 308 308 307 307 307 307 307 309 309 310 310 310 309 309 309 309 309 309 310 310 312 313 313 314 316 316 315 314 314 314 315 315 316 316 317 318 318 318 318 318 318 317 316 316 316 316 316 317 316 316 319 316 319 321 321 328 324 313 316 317 315 315 316 319 325 323 313 311 313 312 312 311 311 311 312 312 311 311 311 312 312
307 307 308 307 308 308 307 307 307 307 307 307 307 307 307 307 308 309 309 309 309 308 308 309 310 312 313 313 313 314 315 315 315 315 315 314 315 315 316 316 317 317 318 318 318 318 318 317 316 316 315 315 316 317 320 321 320 318 318 329 326 319 330 326 313 315 317 314 313 315 319 322 320 313 311 312 312 312 312 311 312 311 311 311 311 311 311 312
307 307 307 307 307 307 307 307 307 307 307 307 307 307 307 307 307 307 307 308 307 308 310 311 312 313 315 315 314 315 315 315 315 315 315 315 315 316 316 317 317 317 317 317 317 317 316 316 315 316 315 316 318 322 326 326 327 324 320 329 329 321 326 323 315 315 315 315 313 315 320 322 319 313 311 312 311 312 312 312 312 311 312 311 311 311 311 311
307 307 307 307 307 307 307 307 307 307 307 308 307 307 307 307 307 306 307 307 308 311 312 314 315 314 315 315 315 316 316 315 315 315 315 316 316 316 317 317 317 317 317 317 317 316 316 315 316 317 317 317 319 324 327 325 328 330 321 322 325 323 322 321 320 316 313 315 314 314 316 319 318 312 311 312 311 312 312 312 312 312 312 311 311 311 311 311
307 307 307 307 307 307 307 307 307 307 307 308 307 307 307 307 307 307 308 309 310 313 314 315 316 315 314 315 315 316 316 316 316 316 317 317 317 317 317 317 317 317 316 316 316 315 315 315 316 320 319 317 318 322 326 325 328 331 326 323 324 323 322 321 322 318 314 316 316 315 315 315 316 313 311 312 311 312 312 312 312 312 312 311 311 310 310 310
307 307 306 307 307 307 307 307 307 307 308 307 307 308 307 308 309 310 311 312 313 314 314 315 315 314 315 316 314 315 316 316 316 316 317 317 317 317 317 316 316 316 315 317 317 315 315 317 319 321 321 319 318 319 323 325 328 329 329 329 327 324 323 322 321 318 315 316 317 316 316 315 315 315 313 311 312 312 312 312 312 312 312 311 311 310 310 310
307 307 307 307 307 307 307 307 307 307 307 307 308 308 309 311 312 313 313 313 313 312 314 316 314 313 316 317 315 316 317 317 317 317 317 317 317 317 316 315 316 315 316 320 320 315 315 320 322 322 321 320 318 318 319 321 323 323 322 324 325 323 323 322 321 317 314 316 319 317 316 316 316 317 313 311 312 311 311 311 311 312 311 311 310 310 310 310
308 307 307 307 307 307 307 307 307 307 307 308 309 309 312 314 315 315 314 314 312 311 312 315 315 315 316 317 317 317 317 317 317 317 317 317 317 317 316 315 316 317 316 318 318 315 316 321 322 322 320 318 319 319 318 318 319 320 320 321 322 323 323 322 319 317 314 316 321 320 317 317 317 317 314 310 311 311 311 311 311 312 311 311 311 309 310 309
310 309 307 307 307 308 308 308 307 308 308 309 309 310 314 316 315 315 316 316 315 313 313 313 314 316 316 317 318 317 317 317 317 317 317 316 316 317 316 316 317 320 318 316 318 318 319 320 319 318 316 316 319 320 318 319 319 320 321 320 322 324 323 322 320 317 315 316 323 324 319 318 319 318 314 310 311 311 312 312 311 312 311 310 310 309 309 309
313 311 308 307 308 308 308 308 308 308 309 310 311 311 315 317 316 316 316 317 318 315 315 316 316 315 316 317 318 318 317 317 318 317 317 316 316 316 316 316 318 319 318 318 321 321 322 324 319 315 315 318 320 320 319 319 320 322 322 320 323 324 321 323 321 317 316 317 320 321 319 318 317 317 317 313 311 312 312 312 312 312 312 311 310 310 309 309
315 314 310 307 308 308 308 308 310 310 309 310 311 312 315 318 317 317 316 317 319 317 314 316 317 316 317 316 317 318 317 317 317 317 317 316 316 316 315 316 317 318 318 318 319 320 322 323 318 315 317 319 320 320 319 320 321 324 325 322 324 324 321 322 321 318 319 320 319 318 320 322 321 318 318 315 311 311 311 311 312 311 312 311 310 310 309 309
316 315 312 308 308 309 309 312 314 312 310 310 311 312 315 317 317 317 316 318 322 320 317 316 317 317 317 316 317 317 317 317 317 317 317 316 317 316 315 315 317 318 318 317 318 318 318 317 317 319 320 319 320 319 321 323 322 323 326 324 321 322 322 322 322 321 323 326 322 318 324 332 330 322 320 317 313 313 312 309 311 311 311 311 310 310 309 309
316 316 314 310 308 310 314 316 316 313 312 312 311 312 315 316 317 317 317 321 323 320 319 318 319 319 317 318 317 316 318 318 317 318 318 317 317 317 317 316 317 318 317 317 317 318 318 317 318 322 322 322 321 319 322 324 321 322 324 325 322 321 321 321 321 322 326 329 322 319 326 331 328 324 324 323 319 317 313 309 309 309 310 310 309 309 309 308
317 317 315 312 309 311 316 317 315 314 314 315 314 314 315 316 317 316 317 322 322 318 320 319 318 319 318 318 317 317 320 319 317 318 318 317 317 316 318 317 316 317 316 317 319 319 320 319 320 322 323 324 321 320 322 321 322 325 324 326 326 321 321 323 322 323 328 328 322 320 324 324 322 323 323 322 321 319 315 311 308 307 308 309 309 309 308 308
319 318 317 315 312 312 315 316 316 315 315 316 316 316 316 316 317 317 319 321 321 319 320 319 317 317 318 318 318 318 318 318 318 318 317 317 317 316 317 317 317 318 316 318 321 320 319 321 323 322 322 323 322 323 324 321 322 324 323 326 328 324 325 327 325 325 325 325 323 321 322 323 325 326 322 319 320 320 317 313 309 307 307 308 308 308 308 308
319 319 318 316 315 314 314 316 316 316 315 317 317 316 316 317 317 318 320 320 321 321 319 318 318 317 317 317 317 317 316 316 317 317 315 316 316 316 316 316 315 317 316 316 321 322 319 318 319 321 323 322 323 325 325 323 321 320 320 325 328 327 328 329 327 326 326 325 324 323 322 324 326 326 323 319 319 321 319 316 310 307 307 308 308 308 307 307
320 319 319 317 316 315 315 316 316 316 316 316 317 316 316 317 317 320 323 322 322 322 316 316 319 316 316 316 316 316 316 315 315 315 315 315 315 315 315 316 315 318 320 317 320 321 317 314 314 319 320 318 320 318 316 320 318 317 323 328 328 328 328 329 327 324 325 324 324 324 323 323 326 328 325 321 320 320 319 319 312 306 307 307 307 308 307 307
320 319 319 317 317 317 316 316 316 316 316 316 316 316 316 318 319 322 324 320 320 321 315 317 319 316 316 317 317 317 316 314 313 315 316 315 315 315 315 317 316 320 322 319 322 320 316 317 316 316 314 314 319 318 314 317 316 319 328 329 326 328 328 328 324 321 324 325 323 323 321 321 324 328 326 320 321 321 319 322 317 307 306 307 307 307 306 306
320 319 319 318 318 318 317 317 317 316 316 316 315 315 317 320 322 324 325 321 322 323 319 319 319 316 316 317 318 317 317 316 313 315 317 316 316 315 316 318 317 320 321 320 322 321 319 321 318 315 314 315 322 323 319 320 319 321 327 325 324 325 326 327 322 321 323 323 320 319 320 320 321 322 321 320 322 321 317 316 315 308 305 306 306 306 306 305
320 319 319 319 318 318 318 318 317 316 316 315 314 315 318 322 323 324 324 324 324 323 320 320 318 317 317 319 319 317 317 318 314 315 316 315 317 316 316 319 317 321 326 322 319 321 323 322 318 317 316 315 320 322 320 322 321 320 322 324 326 324 325 327 324 323 325 323 320 317 318 322 322 322 321 320 317 315 311 311 312 310 308 307 306 306 305 305
320 319 320 320 319 319 319 318 317 317 316 314 315 316 318 321 323 323 324 324 322 320 320 320 319 318 317 319 320 317 317 319 314 315 317 316 318 318 317 318 316 320 328 323 318 320 324 324 321 319 318 317 318 319 321 322 319 318 320 322 324 325 328 330 327 326 327 325 319 316 319 325 326 322 318 313 310 308 309 310 311 310 308 307 305 305 305 305
320 320 320 320 320 319 319 318 317 317 316 314 315 317 318 320 321 323 324 323 321 320 320 319 319 319 319 321 321 317 318 320 315 315 318 317 318 318 317 317 315 318 324 322 320 320 320 325 324 318 315 317 318 316 318 321 320 318 320 322 323 327 329 327 324 323 322 322 319 317 322 325 323 319 312 307 307 307 308 308 308 307 306 305 305 304 304 304
321 320 320 320 320 320 319 318 318 317 315 314 315 317 318 319 321 322 322 320 320 321 320 320 320 321 321 321 321 317 318 321 318 317 319 317 317 317 316 317 314 315 319 320 323 323 321 325 321 314 314 315 315 316 316 318 322 319 319 320 322 326 325 324 323 318 318 323 322 320 322 323 320 319 314 309 310 309 307 306 305 304 304 304 304 304 304 304
322 320 320 321 321 321 320 318 318 317 315 314 316 317 317 318 320 320 319 319 319 320 321 322 321 322 321 321 322 320 319 321 318 318 320 318 318 318 317 318 315 314 316 317 323 326 325 325 318 315 318 314 311 315 314 313 317 320 320 319 319 323 324 325 325 322 321 324 323 320 321 322 321 320 315 310 312 313 309 306 304 303 303 304 303 304 304 304
321 320 320 321 321 321 320 318 318 317 315 314 315 316 317 318 318 318 318 318 319 320 321 322 321 322 322 322 322 321 320 322 318 318 320 319 320 319 317 318 317 314 315 316 321 325 324 325 319 314 318 314 310 315 317 313 313 318 320 317 319 325 324 324 325 324 324 324 324 323 321 320 320 320 319 315 315 315 311 307 306 304 303 303 303 303 303 303
320 319 318 319 320 319 319 319 317 316 316 315 314 315 317 317 316 317 318 318 319 320 320 321 321 321 322 322 322 320 320 321 318 317 321 320 320 320 317 319 319 315 314 315 319 323 323 325 322 314 314 315 313 316 320 318 314 314 316 315 319 323 323 323 323 324 325 324 324 325 322 322 320 319 322 321 316 314 310 308 307 304 303 303 303 303 303 303
320 319 319 319 319 319 319 318 317 316 316 315 314 314 315 316 315 315 318 319 320 320 319 321 322 322 323 322 322 321 320 320 317 317 320 320 320 320 317 318 320 317 315 315 318 321 321 323 323 316 313 315 316 317 319 319 316 315 318 318 318 318 319 322 322 322 325 325 326 325 323 327 325 318 318 320 316 312 310 309 307 304 303 304 304 304 303 303
320 319 319 319 318 319 319 317 316 316 316 314 313 313 314 315 315 314 315 317 318 320 319 320 322 321 321 322 321 321 320 320 318 318 320 319 319 321 319 318 319 318 316 317 318 320 322 324 324 319 315 316 319 318 315 316 317 316 317 318 318 317 319 321 321 322 322 322 326 325 323 327 323 315 316 319 316 311 308 309 307 305 304 304 304 304 304 304
318 318 319 318 318 319 318 316 316 316 315 312 312 312 312 314 316 315 315 315 316 319 319 321 322 322 322 322 322 322 322 321 319 319 320 319 319 321 319 316 317 317 317 318 318 318 321 325 325 322 317 316 317 316 312 313 317 316 316 318 319 318 318 321 323 322 321 320 323 323 323 322 315 311 314 314 312 309 307 307 307 305 305 305 305 304 304 304
315 316 317 318 318 318 318 317 317 317 315 312 311 312 312 313 315 316 315 315 315 318 320 321 322 321 322 323 323 324 322 321 321 320 320 320 319 318 316 315 317 318 318 320 319 318 320 323 324 322 319 316 316 315 313 313 315 316 318 319 318 317 318 321 323 323 322 321 320 321 323 320 312 311 310 305 305 308 307 307 307 305 305 305 305 304 304 304
314 314 315 316 317 318 317 317 317 316 314 312 312 312 312 313 314 315 316 316 316 318 320 320 320 320 322 322 323 325 323 322 323 320 321 323 320 315 313 314 316 318 319 320 320 318 320 323 323 323 323 320 318 317 316 314 314 317 318 317 316 316 317 319 320 320 320 320 321 321 322 321 317 313 310 306 307 308 306 307 308 306 305 305 305 304 304 304
315 314 313 315 316 317 317 317 316 315 312 311 311 312 313 313 313 315 317 316 316 318 319 320 319 319 321 321 322 324 323 322 323 321 321 324 321 313 311 312 314 317 316 316 317 318 322 324 323 322 324 324 322 321 319 316 315 315 317 316 315 316 317 317 318 319 319 319 321 320 321 325 322 315 313 312 310 309 307 306 307 307 307 306 305 305 304 304
314 314 314 314 314 315 316 316 316 314 312 310 311 312 312 313 313 313 315 316 317 318 319 320 319 319 320 321 321 322 321 320 322 321 320 323 323 315 310 310 312 314 314 313 315 319 323 323 322 322 323 323 323 322 319 318 317 316 316 316 316 316 316 317 318 319 319 319 320 319 319 323 322 316 315 315 311 311 309 306 306 307 306 306 305 305 305 305
313 314 315 314 313 313 313 314 315 315 313 312 312 312 312 313 314 314 314 315 316 317 318 319 319 319 320 320 320 321 321 319 320 321 320 322 322 314 309 309 310 311 312 312 313 318 322 321 320 321 322 321 321 320 318 317 317 316 316 315 315 315 316 317 318 318 320 320 320 320 319 320 319 318 318 315 313 312 309 306 306 307 306 306 306 305 305 305
312 313 313 313 314 313 312 312 314 315 314 312 312 313 312 313 314 314 314 314 315 317 318 319 319 319 319 319 319 320 320 320 320 320 320 321 320 315 313 311 308 308 311 312 312 317 322 320 318 319 320 319 320 319 318 318 317 316 316 315 315 315 315 316 317 317 319 320 319 320 321 320 318 319 318 313 310 310 308 306 307 307 307 306 305 305 305 305
310 311 311 311 313 313 312 311 313 314 314 312 312 313 313 312 313 314 314 314 314 316 317 318 318 318 318 318 319 319 319 320 320 319 318 319 319 317 317 317 311 307 311 314 313 314 318 319 318 318 319 319 319 318 318 317 317 317 317 316 315 314 314 316 316 316 317 318 318 320 321 319 318 319 317 311 307 307 306 306 307 307 307 306 305 305 305 305
308 310 310 310 311 311 311 312 313 315 314 313 313 313 313 313 313 313 314 314 314 315 316 317 317 317 318 318 318 319 319 318 319 319 318 318 317 316 318 319 316 310 309 313 314 312 315 318 317 316 317 317 317 317 316 317 317 317 317 317 316 314 314 314 315 315 316 316 316 317 318 318 317 315 312 308 307 306 305 305 306 307 307 306 305 306 306 307
308 309 308 309 310 310 310 312 313 315 314 312 312 313 313 314 313 313 313 314 314 314 315 316 316 316 317 317 318 318 318 317 318 318 317 317 317 316 316 316 316 314 311 311 314 313 314 316 315 315 317 317 317 317 316 315 315 316 316 316 315 313 313 314 314 315 315 316 317 317 316 318 317 314 310 308 306 306 305 304 305 306 306 306 306 307 307 308
307 308 307 307 309 310 311 312 313 314 313 312 310 311 313 314 314 314 314 314 313 314 314 315 315 316 316 317 317 318 317 317 317 316 315 316 315 315 315 313 314 316 313 311 312 313 313 314 314 314 317 318 317 317 316 314 315 317 317 317 315 313 313 313 313 314 314 315 316 316 316 317 317 315 314 312 308 307 306 305 305 306 306 306 307 308 309 309
Wind_Speed
13 12 12 12 11 11 11 10 10 9 9 9 8 8 8 8 8 8 8 8 8 8 7 6 5 4 2 1 1 0 0 1 1 1 1 2 3 3 2 4 5 5 4 4 4 4 5 5 5 4 3 4 4 6 6 5 7 5 2 4 1 0 1 1 1 3 5 5 5 6 4 4 4 3 5 3 4 10 9 8 8 5 5 4 4 4 3 2
11 10 10 10 10 10 10 10 9 9 9 9 9 9 9 8 9 8 8 8 8 8 7 6 5 4 2 2 1 1 1 1 2 1 2 2 3 3 5 7 7 7 7 6 5 5 5 4 2 2 4 3 1 3 4 5 7 4 3 4 1 3 1 1 4 4 4 7 8 6 5 6 6 5 5 1 4 12 9 7 8 7 7 5 3 2 0 1
9 8 9 8 8 9 9 9 9 9 9 9 9 9 9 9 9 9 9 8 8 7 7 6 5 4 3 2 2 2 1 1 2 1 3 1 2 6 8 8 6 5 6 8 7 6 4 3 3 3 5 3 1 1 3 4 5 3 3 4 2 4 3 7 9 9 7 10 10 7 4 5 6 5 5 1 3 8 7 7 7 8 8 7 5 3 1 2
8 8 7 7 7 8 8 8 8 9 9 9 9 9 9 9 9 9 9 9 8 7 6 6 5 4 3 2 2 2 3 2 4 2 3 5 6 7 8 7 4 2 4 7 7 7 5 4 4 4 5 2 1 2 2 4 3 2 3 4 4 2 4 6 8 8 8 9 9 8 4 3 5 5 4 3 3 2 6 10 9 9 9 8 7 5 3 4
7 7 7 7 7 7 7 7 7 8 8 9 9 9 10 10 10 9 9 8 8 7 7 6 5 4 3 2 2 2 1 1 4 5 5 6 7 7 6 5 3 1 3 6 6 6 6 5 5 4 3 1 1 3 2 4 4 3 2 4 2 4 4 3 6 5 4 5 5 5 4 3 5 3 1 4 4 3 8 11 9 9 7 6 7 6 5 6
8 8 8 7 7 7 7 7 7 8 8 8 9 9 9 9 9 9 9 9 8 7 7 6 5 4 3 3 3 2 0 2 5 7 6 6 6 5 4 3 2 3 4 6 5 4 4 4 5 5 3 1 1 3 1 3 5 2 1 4 7 6 5 4 4 3 1 3 3 3 2 3 2 1 3 4 5 6 11 12 8 7 8 9 10 9 8 8
9 8 8 8 8 8 8 8 8 8 8 9 9 9 9 9 9 9 9 9 8 7 7 6 5 5 4 4 3 2 2 2 6 8 6 5 5 4 3 3 4 5 5 5 4 3 3 4 5 5 4 3 3 3 2 2 4 4 1 3 5 5 5 3 2 3 1 1 1 0 1 2 1 1 2 4 6 8 11 9 6 6 8 10 11 11 10 10
10 9 9 8 8 9 9 10 10 10 9 9 9 9 9 9 9 9 9 9 8 7 7 7 6 6 5 4 3 2 4 4 7 8 6 6 5 4 3 3 3 4 4 2 1 1 3 6 6 5 3 3 3 3 3 4 4 4 1 3 3 2 2 3 3 3 4 3 4 4 5 6 5 4 4 6 9 10 11 7 6 7 7 9 10 10 10 9
11 10 9 9 9 9 10 10 11 11 11 10 10 10 9 9 9 9 9 9 8 8 8 7 7 6 5 5 3 3 4 5 8 7 5 5 5 3 2 2 2 2 1 3 3 3 2 4 5 5 3 2 3 3 3 4 2 1 1 3 3 2 2 4 6 5 5 5 6 5 6 8 8 6 5 8 13 11 10 8 7 8 9 10 10 9 8 7
12 11 11 10 10 10 10 10 11 12 12 12 12 11 11 10 10 10 10 9 9 9 9 8 8 7 6 5 4 3 3 7 8 7 6 5 4 2 1 1 1 1 2 5 5 4 3 2 2 3 2 3 3 2 2 2 2 0 1 4 6 7 8 7 8 9 7 7 9 6 5 7 6 4 5 9 15 13 11 10 10 11 11 11 9 8 7 6
13 13 12 12 11 11 11 11 12 12 13 13 13 13 12 12 11 11 10 10 10 9 9 9 8 7 6 6 7 4 5 9 7 6 6 6 4 1 1 1 0 1 1 3 4 3 2 1 1 1 1 2 3 1 2 3 3 0 3 6 8 10 11 10 10 11 9 6 10 9 4 5 3 4 7 13 17 14 13 13 12 13 12 10 8 7 7 7
15 14 14 13 13 12 12 12 12 12 13 14 14 14 13 13 12 12 12 11 11 10 10 9 8 8 7 8 11 8 6 9 8 7 7 5 3 4 4 3 2 1 1 1 2 3 3 1 1 0 1 1 1 2 2 2 1 1 1 3 7 7 7 11 12 15 11 4 9 9 2 5 4 6 6 13 18 14 14 14 14 14 12 11 9 8 8 8
17 16 15 14 14 13 13 12 12 13 14 14 14 14 14 14 13 13 13 12 12 11 10 10 9 9 7 7 10 9 8 10 9 9 8 7 7 6 6 5 4 4 3 3 2 3 3 1 1 1 1 1 0 1 1 1 1 2 1 1 3 6 5 8 9 14 10 4 11 9 1 6 6 7 8 14 18 16 15 16 16 15 13 12 10 9 10 10
19 18 17 16 15 15 14 13 13 13 14 14 14 14 14 14 14 14 13 12 12 11 10 10 9 8 8 7 7 8 11 12 12 11 10 9 8 7 7 6 5 5 5 4 4 3 3 2 3 3 2 1 1 2 0 1 2 1 1 1 1 2 5 6 1 12 8 4 12 10 1 7 7 5 12 16 18 18 18 18 17 16 14 13 12 11 11 11
21 19 18 18 17 16 15 14 14 14 14 14 14 13 13 14 14 14 13 13 12 11 10 9 8 7 6 8 8 9 11 13 14 13 11 10 9 8 8 7 6 6 6 5 5 5 3 4 5 3 2 2 2 2 2 3 1 1 1 3 2 2 5 7 2 12 7 3 10 8 1 7 7 7 15 16 18 19 19 19 18 17 16 14 13 12 12 12
22 21 20 20 19 18 17 16 16 15 14 14 13 13 13 13 13 13 13 12 11 10 9 7 8 7 4 6 8 9 12 15 15 14 13 11 10 9 8 7 7 7 6 5 4 4 4 6 5 3 4 3 3 4 4 4 4 2 2 3 3 2 3 5 1 8 7 4 6 5 2 4 5 9 16 16 20 20 18 20 20 19 18 17 15 14 14 13
23 22 21 21 20 19 18 17 17 15 14 14 14 13 12 12 12 12 12 12 10 9 8 6 6 6 5 6 8 10 14 15 14 12 11 9 9 9 8 7 6 5 4 4 4 5 7 7 5 3 2 2 2 5 5 2 4 4 1 3 4 3 2 1 4 5 7 6 5 5 4 6 5 8 17 19 22 22 20 22 23 22 21 19 17 16 16 15
23 23 22 21 21 19 18 17 17 15 14 14 13 12 12 12 12 12 11 11 10 7 6 7 6 2 7 12 12 12 14 14 13 11 9 10 10 9 7 5 4 4 4 4 5 7 7 5 4 1 1 0 1 5 3 4 4 3 3 2 4 3 2 3 3 3 7 4 4 5 5 10 9 6 16 21 23 24 23 24 24 24 23 20 19 18 17 16
23 22 22 22 21 19 18 18 16 14 13 13 13 12 11 10 10 10 11 12 12 8 3 10 14 4 2 11 16 14 11 11 11 10 11 11 11 9 7 5 4 6 7 4 3 7 8 3 3 2 1 4 5 6 7 8 7 6 5 4 4 3 4 4 4 5 8 4 5 8 7 9 10 8 13 20 23 25 24 21 21 23 23 22 21 19 18 18
21 21 21 21 20 19 18 18 16 13 13 13 13 12 10 8 5 6 12 16 19 16 7 10 17 11 1 4 12 14 10 10 11 11 12 12 12 11 9 8 7 5 5 5 3 6 8 3 2 4 7 8 8 9 9 8 7 5 3 3 4 4 5 4 4 4 5 4 6 9 8 8 9 7 12 20 21 21 22 18 20 24 25 25 23 21 20 19
20 20 20 20 19 19 18 17 15 13 13 13 14 13 9 9 6 3 10 15 21 24 18 12 13 14 9 4 8 11 11 11 11 12 11 12 13 11 10 10 7 3 4 5 4 3 6 5 6 9 9 8 7 9 9 8 7 6 5 5 4 4 5 5 3 3 2 2 5 6 6 8 9 7 10 16 14 17 25 24 23 27 27 26 25 23 22 20
19 20 19 19 20 19 18 17 14 13 14 14 16 14 10 12 11 7 6 8 14 20 23 21 19 19 16 11 10 11 11 9 10 12 13 16 16 11 11 10 5 3 4 4 4 2 4 5 8 12 9 7 6 7 7 7 6 7 5 4 4 4 4 4 3 2 0 2 4 5 5 7 9 8 8 14 18 21 31 31 28 30 29 28 26 25 25 22
19 19 19 20 20 18 17 16 14 13 14 15 17 16 12 11 12 9 5 5 9 14 20 22 25 27 23 17 14 17 16 10 11 16 17 18 18 14 13 10 5 5 4 4 5 4 4 6 11 15 10 6 7 8 6 5 3 4 5 4 4 4 2 3 4 3 2 1 3 4 5 6 7 8 9 16 20 19 22 25 25 26 29 29 28 27 26 24
18 18 18 19 19 19 17 13 12 13 14 15 17 18 14 10 9 7 4 4 6 12 19 21 23 28 29 23 19 21 20 16 14 17 20 22 19 14 13 12 7 5 5 8 9 8 8 6 8 12 10 8 8 7 6 6 3 3 5 5 4 3 5 6 3 1 3 4 2 2 5 6 6 9 10 8 9 9 12 18 20 23 27 27 26 26 26 24
18 17 18 18 19 18 14 11 14 14 14 15 17 19 15 10 7 4 2 3 5 7 12 17 19 23 28 26 22 21 18 18 19 19 22 25 22 12 9 13 8 5 8 9 8 8 10 9 5 7 8 9 8 7 7 7 5 5 5 7 7 6 7 6 0 3 3 5 3 1 2 6 3 7 9 2 2 6 8 13 18 21 24 25 26 27 25 23
19 18 17 18 20 17 14 12 17 16 15 16 15 16 14 10 7 4 2 2 4 4 4 10 13 14 19 23 24 19 9 12 18 21 22 24 24 15 7 9 7 6 9 7 4 4 5 10 9 6 7 8 7 7 6 7 6 4 5 7 9 8 8 6 3 1 2 4 3 3 2 7 5 4 8 4 5 8 8 10 14 19 23 26 27 27 26 23
19 19 18 19 20 20 18 16 18 18 17 14 12 14 14 13 10 6 4 4 5 5 8 9 10 10 13 20 28 19 3 6 13 19 25 24 24 19 8 6 6 6 7 5 4 4 4 10 10 8 7 7 7 6 6 8 7 4 5 4 7 8 8 7 4 3 3 3 4 2 3 5 8 6 8 8 7 8 9 10 12 18 23 25 26 26 25 25
20 19 19 20 21 22 21 18 18 20 16 11 10 15 16 16 13 7 4 1 3 6 6 6 9 10 12 20 31 19 6 11 11 14 27 27 24 17 9 9 8 7 9 8 5 4 3 9 10 10 8 6 6 5 6 9 6 5 5 5 6 5 5 4 5 2 1 2 3 1 4 3 9 6 3 5 6 9 14 14 13 18 23 25 27 26 25 25
22 21 20 20 20 22 21 17 17 17 14 10 10 16 20 18 12 5 3 2 3 4 3 7 8 10 15 21 25 17 9 7 3 13 25 24 22 12 4 9 7 6 9 9 7 2 1 6 8 9 7 6 5 0 3 8 5 4 3 6 6 4 5 5 4 4 3 2 5 5 5 3 8 4 3 2 5 11 13 10 11 18 25 26 28 27 26 26
27 25 22 21 22 23 23 21 18 14 13 12 13 20 24 17 8 4 2 3 2 1 3 8 8 12 19 16 9 8 7 2 5 15 16 12 15 9 3 6 4 3 4 5 4 2 1 2 3 3 4 5 6 4 3 3 7 7 6 6 7 6 5 4 3 5 2 5 6 9 10 6 5 4 4 4 5 8 7 2 6 16 24 28 29 29 29 28
30 28 26 26 26 25 25 27 23 17 17 15 17 26 23 9 2 4 6 1 1 2 4 4 4 10 17 13 6 6 4 2 7 14 8 4 7 5 3 5 1 2 2 5 4 4 3 2 1 2 5 7 7 4 6 4 5 8 5 4 4 4 5 5 4 4 1 7 5 10 11 10 8 6 3 4 5 4 5 5 7 13 22 29 30 31 31 31
30 29 29 29 28 27 28 28 23 21 20 16 21 27 16 3 2 6 5 2 1 4 5 4 4 7 11 10 8 9 5 3 7 10 7 4 6 6 6 6 5 3 3 5 3 4 2 3 2 2 4 7 7 4 4 6 3 5 5 6 3 1 2 3 2 1 4 7 4 7 8 7 9 7 6 10 9 6 6 8 12 18 24 29 30 31 31 32
31 30 31 32 31 30 30 26 23 26 22 20 27 23 8 3 7 9 8 4 1 3 4 4 5 8 11 8 6 7 5 3 7 7 5 4 5 7 5 4 6 4 3 6 4 2 3 5 2 3 2 8 10 6 3 1 2 5 6 7 5 3 1 2 3 2 5 5 4 4 5 3 6 4 8 13 10 6 6 7 15 22 27 30 31 31 30 31
34 32 34 36 34 32 30 27 27 29 26 27 26 15 4 6 8 9 12 8 1 1 3 5 6 8 9 7 5 7 4 2 7 7 4 5 5 6 5 6 8 3 3 4 3 6 5 6 5 7 4 10 12 9 7 5 5 6 5 6 6 5 4 4 4 4 4 4 4 2 3 4 3 2 6 7 4 2 3 5 14 19 24 29 29 30 30 31
37 35 35 37 38 38 36 33 32 32 34 33 19 7 7 8 6 8 10 7 2 1 3 6 8 7 7 4 3 7 5 2 6 6 4 6 6 7 7 8 10 6 4 4 2 4 6 7 7 6 5 13 13 7 8 8 2 3 2 4 3 6 5 3 3 4 3 2 3 3 4 4 4 4 4 2 3 3 4 7 15 17 22 27 29 30 32 32
39 38 36 38 42 44 43 41 37 37 41 32 11 6 10 8 5 6 6 7 6 4 6 6 5 5 6 4 3 6 4 2 6 5 4 5 4 6 6 5 10 11 8 7 2 3 4 5 4 1 3 8 9 6 7 6 4 2 3 4 4 5 5 3 3 1 2 3 4 4 5 4 3 6 2 3 1 1 3 7 14 18 24 28 30 32 33 33
42 44 44 46 47 46 48 48 41 42 43 25 8 9 8 6 6 5 4 7 9 8 8 5 5 6 7 5 4 7 4 3 6 5 3 4 3 7 7 4 11 16 12 8 3 3 5 3 4 2 2 4 3 5 3 2 5 5 4 6 2 2 1 2 2 2 1 4 5 4 6 5 3 5 1 4 3 5 4 6 10 15 22 26 28 32 33 34
49 47 46 51 51 48 51 50 45 47 37 15 8 11 7 5 7 6 5 8 9 10 8 7 6 6 7 7 5 8 7 4 7 6 4 4 4 8 11 6 10 19 20 13 4 2 3 2 4 0 2 1 2 4 2 3 3 5 4 5 4 1 1 3 2 3 2 4 5 3 5 6 8 6 2 4 9 10 7 7 8 13 21 25 27 30 32 33
44 36 32 44 50 47 46 48 50 46 26 9 9 10 5 6 6 5 7 8 8 10 9 8 6 4 6 8 6 8 9 7 9 7 5 5 4 6 12 9 8 17 24 17 7 3 3 3 3 2 1 1 2 2 4 2 0 3 2 3 2 2 4 4 3 3 3 4 5 3 3 5 7 7 8 11 14 13 11 10 10 15 23 27 28 31 33 34
36 21 17 33 40 39 43 47 45 32 12 7 11 6 3 5 5 9 13 8 3 5 7 7 6 5 6 7 7 8 7 6 9 7 4 6 5 3 9 11 6 11 21 20 11 4 2 2 3 1 3 1 2 4 8 10 7 3 3 5 3 1 2 1 2 3 4 3 3 3 6 7 4 4 9 13 14 13 15 14 13 18 25 28 30 33 35 36
31 16 12 23 26 31 44 40 26 14 5 5 9 7 5 4 4 12 19 16 5 1 3 4 6 7 7 6 7 8 7 6 8 7 4 6 6 3 7 12 10 10 12 11 9 6 3 2 3 2 1 3 5 5 6 8 7 6 6 8 8 6 4 2 4 3 3 3 4 3 8 10 4 1 3 8 8 10 17 17 14 19 27 30 32 34 36 37
20 7 6 16 22 33 41 24 10 10 7 7 10 9 8 4 3 9 16 19 12 4 2 1 3 7 6 5 6 6 7 6 7 8 5 7 9 5 5 8 12 15 12 7 10 9 4 3 3 2 3 5 6 4 0 2 2 2 2 5 6 7 7 6 6 4 3 3 3 2 6 9 2 1 3 4 5 8 18 20 15 20 28 31 32 33 33 35
17 10 4 8 22 39 35 11 6 10 4 5 10 10 11 8 4 8 12 15 11 5 4 2 2 5 4 3 5 6 8 7 8 10 7 6 7 3 2 4 7 13 10 4 7 6 3 2 3 2 2 2 3 4 4 4 4 1 3 4 5 7 7 6 5 3 3 5 4 2 7 7 2 3 4 5 6 5 16 20 18 20 25 29 30 30 32 33
21 19 12 10 23 39 27 6 6 9 3 4 7 10 13 10 8 10 10 12 11 6 5 4 3 4 3 2 3 5 8 6 7 8 6 4 4 1 3 5 6 9 8 3 5 9 6 3 3 2 2 2 3 2 3 2 2 4 4 4 6 7 6 3 1 2 3 7 8 5 9 7 3 4 5 6 5 3 11 18 20 21 24 28 29 29 32 33
15 14 14 20 31 36 24 13 12 8 5 7 6 8 11 8 12 16 10 10 13 9 5 6 5 3 2 2 2 2 6 4 2 3 2 2 2 1 2 4 4 5 4 1 7 12 8 3 5 6 7 8 6 4 4 3 3 3 3 6 9 11 11 7 2 4 6 5 10 9 10 5 4 5 5 5 3 3 8 15 20 22 25 29 30 30 32 33
10 6 8 16 28 28 19 20 21 10 7 9 5 7 12 8 11 17 13 9 12 12 7 3 5 5 2 2 3 3 4 1 3 2 3 3 3 2 0 2 3 4 3 4 8 9 4 2 8 11 12 12 7 2 2 6 6 6 8 12 13 13 14 9 5 8 6 3 7 14 11 7 7 5 5 5 4 4 5 11 17 20 24 28 30 31 32 33
8 6 5 8 14 18 14 13 13 10 11 14 7 6 15 13 7 10 15 13 12 14 9 2 4 7 6 8 7 6 5 3 3 3 4 4 2 2 1 1 1 3 3 4 6 6 4 3 10 13 15 13 4 1 3 7 10 12 12 15 16 15 15 13 13 12 7 4 13 11 9 12 12 7 9 9 7 6 6 11 18 22 24 27 29 30 31 32
8 5 9 10 6 7 10 12 11 9 13 16 9 6 13 16 10 8 14 14 11 12 8 4 8 13 14 14 10 7 6 5 4 7 5 4 2 1 1 1 0 2 2 2 1 3 4 5 7 8 12 13 5 2 5 6 6 7 11 15 16 17 18 19 21 17 10 11 17 7 11 17 12 7 10 10 10 12 14 18 20 21 24 27 29 30 31 32
10 6 7 11 6 3 11 17 14 9 10 13 10 8 12 16 16 12 9 7 7 11 11 9 13 17 15 13 10 8 8 8 9 11 8 6 5 3 2 2 1 2 3 2 0 1 3 4 4 6 9 15 12 8 6 6 4 4 8 12 14 19 22 22 24 21 15 18 18 4 6 13 8 7 11 14 18 19 17 18 18 20 25 29 30 31 32 32
12 7 4 7 6 3 7 12 10 7 8 10 9 10 12 16 19 15 10 10 9 10 13 16 18 15 13 12 11 11 13 14 14 11 9 7 4 4 5 4 3 2 2 3 1 1 3 3 4 6 7 14 15 11 6 7 7 8 9 12 14 16 18 19 20 18 14 18 18 8 9 13 7 7 8 11 17 15 12 15 19 22 26 29 31 32 31 30
14 11 6 3 3 4 4 5 7 6 6 6 5 6 9 14 17 14 12 16 18 13 14 21 22 12 10 12 12 15 19 18 15 12 13 15 12 10 9 7 8 6 3 4 3 3 4 3 2 6 6 11 11 11 11 8 6 9 16 19 16 12 12 16 17 14 14 18 17 13 14 12 5 4 1 3 10 11 11 15 19 21 25 29 30 29 28 26
20 17 11 3 2 6 5 2 4 6 6 7 7 7 5 6 8 10 9 13 20 21 20 24 20 10 8 12 17 25 27 21 19 17 15 18 16 14 14 14 14 12 7 5 4 4 6 4 2 5 6 8 5 8 9 5 3 9 16 18 15 13 12 15 15 16 18 18 14 13 13 7 4 6 4 3 5 7 10 16 20 22 27 29 25 21 20 19
Wind_Direction
206 207 209 210 209 210 210 209 207 202 200 199 196 195 194 192 191 193 192 188 181 174 169 167 167 168 166 189 215 287 204 60 278 241 194 234 270 270 197 139 120 104 95 94 113 105 84 67 27 12 359 350 5 6 11 16 16 22 92 78 48 199 70 264 195 154 149 144 166 155 134 135 149 157 137 127 115 122 120 113 116 128 123 116 133 151 190 223
201 203 204 206 206 206 205 205 203 200 200 198 197 196 197 194 192 190 187 184 179 174 171 171 173 178 188 211 244 276 259 343 261 241 32 310 252 190 148 140 123 101 77 55 65 76 85 86 27 353 3 346 316 9 17 13 20 37 94 78 193 196 59 46 110 91 112 144 155 136 105 126 149 156 146 187 116 125 117 104 122 131 124 125 140 153 240 241
193 196 199 201 203 204 204 204 203 204 202 200 200 196 194 192 190 187 184 184 181 178 177 180 184 192 204 228 259 288 304 276 232 252 35 48 151 146 146 145 132 104 60 35 41 57 70 73 34 7 6 357 193 46 20 12 20 30 69 79 246 212 72 61 87 74 90 134 135 122 111 123 143 148 145 192 95 121 140 140 147 146 146 158 164 175 191 230
190 193 198 201 205 206 206 205 205 206 203 201 200 197 194 192 190 188 187 185 184 186 186 190 196 201 214 241 268 301 323 286 206 173 82 104 120 134 147 153 153 119 28 13 21 45 58 58 37 8 359 329 168 85 38 15 13 3 76 148 222 181 83 64 88 74 77 107 114 118 107 100 146 157 156 160 91 90 169 167 179 171 169 175 174 183 177 198
195 198 200 202 206 208 209 210 210 210 207 205 202 200 196 193 192 191 191 191 191 193 195 200 205 210 231 249 270 291 359 44 173 160 122 117 121 135 152 166 184 241 342 352 8 49 56 40 22 3 360 295 150 84 37 13 21 21 75 137 105 83 112 111 101 87 72 87 82 92 91 107 153 173 212 182 175 210 180 168 176 178 189 199 203 211 184 189
202 207 209 211 213 214 216 215 216 214 213 211 208 205 201 199 198 197 198 199 200 201 203 207 210 219 236 242 263 272 199 107 159 158 140 134 134 144 162 193 229 280 305 326 347 44 51 31 5 345 351 354 115 112 108 13 26 46 32 71 62 70 123 141 110 103 82 86 67 60 113 143 148 265 265 214 203 196 176 169 173 184 206 218 226 222 194 189
204 208 213 218 221 223 225 224 224 221 218 217 215 213 210 209 207 206 207 207 209 209 210 214 217 225 232 239 253 248 231 194 172 170 167 159 160 178 201 244 269 290 296 312 328 9 31 32 9 345 9 46 69 104 113 34 49 84 353 17 52 70 110 147 151 143 201 171 141 110 224 223 212 258 253 198 190 188 181 182 189 196 206 212 214 204 189 186
208 210 213 217 223 228 231 233 233 231 228 225 223 221 218 218 217 216 215 214 215 214 218 220 221 225 226 236 239 233 241 206 176 176 183 182 194 223 249 283 300 303 299 313 328 18 39 39 28 9 39 53 47 70 59 38 46 77 42 349 20 46 117 189 211 200 235 224 203 241 255 252 249 250 251 202 188 188 191 195 197 198 198 193 187 180 178 183
213 216 218 219 222 227 233 235 237 237 236 233 230 227 224 223 223 222 221 221 220 220 223 224 228 228 227 228 220 245 239 187 178 179 178 189 208 237 265 316 353 350 31 101 115 135 105 58 46 39 47 21 33 71 67 50 34 80 94 350 340 307 270 229 221 219 238 231 217 241 256 261 265 263 263 217 198 193 193 194 193 195 187 177 176 174 173 184
217 219 223 225 226 230 233 235 237 239 238 236 234 231 228 226 227 227 226 226 224 226 227 228 231 227 227 217 198 223 198 171 178 180 173 185 196 216 259 40 38 17 66 107 123 130 118 80 35 24 16 5 26 71 66 83 152 107 5 329 301 278 277 246 224 225 231 235 223 213 239 264 263 236 235 203 193 193 190 186 189 191 183 177 179 179 179 193
221 222 226 227 230 236 239 239 238 237 238 237 235 234 231 229 229 230 230 230 229 230 230 231 232 230 227 209 199 205 179 172 179 179 178 182 184 215 228 209 97 18 53 119 131 133 122 108 269 300 358 27 29 46 61 97 136 15 337 319 290 283 283 252 227 223 214 227 222 204 233 278 235 219 232 198 188 194 194 186 188 190 187 183 185 189 195 206
225 227 229 229 232 238 243 246 243 241 240 238 236 235 234 231 230 231 232 232 232 234 234 235 235 231 226 221 225 222 188 181 185 188 190 195 228 254 239 236 246 228 248 228 144 142 145 134 151 153 118 96 31 53 70 97 127 289 316 311 296 321 303 248 228 214 198 196 201 183 314 301 225 225 229 193 185 189 192 187 186 191 192 191 193 200 206 215
227 229 234 234 235 239 242 245 246 244 242 240 238 236 235 233 231 230 231 231 233 235 236 238 239 235 227 231 238 226 208 203 201 206 214 235 260 254 241 238 238 223 225 243 206 166 172 182 192 195 151 128 107 111 147 228 191 277 260 162 313 354 322 259 229 201 187 168 175 158 334 279 255 230 189 180 182 181 183 184 186 193 196 198 202 209 214 221
229 231 234 236 238 240 241 242 242 241 241 242 240 238 236 233 232 230 230 231 233 235 237 238 240 237 229 236 245 227 217 219 222 227 232 246 252 248 248 238 230 229 224 223 217 224 252 249 212 209 204 178 134 130 348 319 162 248 348 53 4 357 289 303 186 170 164 176 170 142 199 255 280 229 177 178 184 183 183 183 188 195 199 204 207 212 218 223
230 232 233 234 237 238 239 239 237 235 236 238 238 238 235 232 231 229 228 229 230 232 234 235 234 233 234 239 241 226 221 226 232 235 236 242 245 247 246 233 225 223 219 224 231 252 257 209 195 188 172 163 128 100 16 353 342 77 57 320 327 162 263 314 127 162 158 187 172 142 184 259 278 209 181 182 185 188 190 186 192 199 201 205 209 211 216 222
230 231 231 233 234 235 236 234 233 231 230 233 235 234 233 232 230 227 226 224 225 227 225 224 219 214 237 248 234 224 224 227 232 236 238 241 241 239 232 225 225 221 223 232 235 230 191 174 173 160 149 149 125 92 48 7 335 356 139 242 265 182 265 318 263 189 164 138 183 186 201 261 273 197 185 188 188 192 194 193 197 202 205 205 208 214 215 219
229 227 227 230 232 233 232 230 229 227 226 230 231 229 229 228 225 224 223 219 218 214 208 206 203 212 241 242 229 227 225 224 227 231 233 234 229 226 221 213 213 214 217 205 191 179 174 169 159 161 164 153 125 97 65 356 299 314 197 229 247 208 219 277 295 243 166 139 197 225 229 244 265 196 190 196 195 195 198 202 203 204 207 206 207 213 214 218
229 226 223 225 229 229 228 228 225 222 223 225 226 224 222 221 219 217 216 216 206 191 199 195 170 204 249 229 223 229 226 223 225 225 221 218 214 214 208 200 196 179 156 161 174 168 169 166 147 147 3 267 159 119 128 218 209 213 188 211 258 255 227 211 262 230 164 157 204 207 240 249 264 229 203 205 201 201 206 208 206 204 205 205 206 207 211 217
227 225 221 221 224 223 223 224 221 221 221 220 220 215 213 213 213 215 213 207 191 172 196 202 186 170 255 219 218 225 223 214 214 214 211 206 203 199 183 163 158 151 142 143 185 176 165 121 92 122 218 213 203 169 188 205 186 186 180 168 192 228 269 232 237 217 170 174 225 211 227 244 251 242 218 211 205 207 215 215 209 204 202 203 203 204 208 212
225 224 221 220 220 219 220 220 219 218 216 216 211 201 198 190 186 221 214 210 209 206 209 202 201 207 196 177 202 209 202 192 198 202 201 198 195 184 161 148 146 144 149 154 186 187 165 149 162 195 210 208 204 196 205 209 198 210 214 209 198 202 266 260 248 249 170 167 240 225 228 247 248 243 226 215 207 210 218 219 211 203 201 202 199 200 204 206
223 221 219 218 218 217 218 219 217 214 209 206 199 190 187 181 176 218 211 220 229 226 228 225 216 225 232 218 200 198 183 175 191 196 189 188 186 174 163 157 143 170 212 166 137 156 165 192 219 215 215 204 200 204 212 221 224 238 235 241 247 218 250 261 246 259 174 184 261 258 253 260 257 255 235 211 201 213 216 213 211 205 203 202 198 197 199 202
224 221 216 215 215 215 218 219 215 209 203 199 195 191 193 196 204 217 213 245 250 236 235 235 234 235 234 234 226 207 187 170 185 191 179 176 178 179 174 162 146 194 206 145 105 131 197 232 230 223 220 204 217 226 214 216 218 228 225 220 249 245 258 295 313 307 34 188 256 286 275 265 266 267 243 209 205 219 218 213 213 208 201 199 196 195 197 200
226 221 215 213 211 211 216 217 214 208 200 196 193 194 200 202 207 220 231 277 273 248 236 232 231 230 225 223 216 203 198 193 191 189 180 175 179 186 176 160 174 189 167 155 157 173 211 242 230 218 212 199 229 246 224 216 210 205 195 177 233 249 232 273 301 294 284 219 242 290 285 269 270 273 258 224 216 225 224 219 220 214 206 202 201 202 203 202
225 220 216 212 207 208 208 209 213 211 203 198 195 195 198 197 198 216 236 273 283 256 243 237 232 230 224 218 210 206 210 214 207 194 187 182 177 180 183 175 174 175 191 195 187 198 214 226 213 196 198 201 216 237 217 210 246 236 192 183 210 222 209 232 270 312 330 332 305 324 312 280 247 247 257 242 216 224 219 212 215 215 211 207 204 206 209 209
219 217 215 208 205 203 192 198 212 212 210 206 202 197 193 187 181 186 227 280 282 259 250 238 233 236 228 218 213 208 214 224 221 209 197 193 184 172 182 188 178 180 207 201 195 223 231 225 204 168 193 208 206 224 206 186 222 262 227 202 205 210 219 233 199 67 3 322 285 105 305 282 264 243 254 267 179 218 208 199 200 199 200 201 200 202 204 208
215 212 209 205 205 191 175 204 218 212 217 216 204 195 190 179 164 160 126 8 285 227 194 205 214 227 217 207 199 193 220 236 221 215 207 202 198 187 171 184 189 199 197 188 204 241 216 202 203 178 186 203 208 227 215 178 180 244 245 206 203 213 220 221 185 122 248 265 274 109 169 273 292 260 252 234 205 223 218 209 199 188 189 194 197 198 200 202
213 209 205 206 203 187 183 209 218 209 217 217 195 185 185 171 156 148 104 14 283 184 150 177 186 190 195 191 184 180 225 195 184 202 200 197 200 196 192 185 185 199 176 156 230 256 155 175 196 189 182 194 203 221 216 171 155 230 250 184 184 205 213 207 168 168 226 255 314 43 123 279 280 250 238 220 217 243 239 225 209 193 189 190 193 197 199 203
214 207 202 205 206 199 196 207 216 213 213 209 186 180 176 165 158 140 107 325 245 145 142 173 166 172 176 177 181 177 140 141 147 187 188 188 195 197 210 201 180 189 176 163 218 261 149 172 188 184 183 196 201 215 193 158 148 244 237 129 139 170 169 142 118 126 328 355 304 255 121 279 276 255 229 210 217 248 244 227 212 200 194 190 190 195 198 202
215 214 205 202 207 205 199 202 214 218 214 202 185 176 168 163 157 123 90 231 186 120 137 160 152 161 157 164 182 177 136 130 135 175 179 186 192 191 214 205 183 182 195 201 212 235 142 183 183 171 180 201 196 206 167 165 175 207 153 84 69 67 77 78 96 97 35 324 241 201 154 228 272 246 146 140 215 238 247 234 205 200 199 196 194 194 196 198
212 219 209 200 203 201 198 199 204 205 197 191 182 169 164 162 148 127 186 221 195 104 121 151 161 165 156 155 184 173 134 77 113 152 167 183 187 186 167 184 165 135 212 262 238 232 42 152 168 154 167 168 144 77 40 172 169 136 94 58 46 25 32 44 50 83 57 277 227 186 179 185 270 266 177 188 221 227 244 233 184 195 199 201 200 199 197 196
208 213 208 204 208 205 202 201 199 189 179 181 177 165 161 157 129 182 200 226 359 148 123 152 177 161 160 158 171 169 132 70 137 149 160 166 174 175 133 160 138 70 291 295 291 315 1 117 189 147 143 122 107 75 24 38 127 114 87 80 67 355 11 22 1 64 188 259 220 187 185 181 225 261 225 238 262 240 221 201 187 189 195 198 200 202 200 198
210 208 208 211 213 210 210 209 202 185 173 173 172 164 157 151 220 217 205 81 36 190 153 173 189 163 168 169 173 173 144 144 171 164 168 162 172 189 183 186 178 154 246 235 250 316 300 229 215 128 164 155 123 91 18 6 45 98 101 110 114 299 2 1 309 130 223 255 241 192 182 193 233 256 264 263 265 248 234 216 196 188 191 194 195 198 198 198
214 209 209 214 216 215 217 218 202 184 175 171 170 164 155 198 201 212 208 178 199 199 141 149 167 160 165 171 181 170 144 167 179 172 173 155 176 211 233 231 190 177 203 191 190 216 273 297 211 132 237 192 162 150 175 261 173 149 138 141 158 175 189 254 243 244 252 263 271 198 170 227 271 275 251 256 258 249 267 242 207 196 192 191 191 192 194 196
216 211 211 214 219 221 220 216 201 188 179 172 168 164 176 208 201 204 210 212 215 87 118 130 140 152 169 183 188 167 156 203 171 158 156 147 174 217 236 240 215 187 105 151 179 180 214 288 202 177 201 184 182 186 170 140 158 181 156 145 163 163 174 211 206 220 249 273 283 234 169 198 221 252 239 256 289 311 304 224 196 193 190 186 185 187 190 193
222 214 213 215 219 221 220 214 203 191 178 169 165 174 191 200 208 204 209 206 179 100 112 125 127 145 191 220 214 178 171 192 169 156 164 173 189 202 200 214 204 175 137 176 222 165 197 263 226 190 163 167 182 189 142 113 142 221 125 119 186 183 180 215 208 187 187 288 276 209 220 217 209 257 242 247 336 32 72 154 164 169 176 177 179 184 189 193
226 216 216 218 218 218 216 211 203 192 179 168 162 203 200 207 199 184 193 183 176 148 114 123 133 154 198 217 231 206 179 115 159 169 197 200 212 201 195 207 193 189 186 179 179 153 181 274 268 132 117 173 185 170 148 152 179 183 144 179 205 175 166 212 273 38 101 268 263 194 240 290 292 268 226 118 15 34 96 142 153 161 168 173 180 186 190 194
228 219 218 220 220 219 215 209 202 193 183 173 179 200 201 221 194 166 184 176 169 154 141 166 180 168 188 193 199 201 177 114 164 176 189 197 228 202 193 208 190 196 207 196 200 193 169 253 272 144 160 223 177 123 99 97 135 132 183 199 162 68 100 143 263 334 55 256 269 199 225 255 236 252 288 101 194 230 217 172 156 164 172 178 184 188 192 196
225 217 217 220 221 218 212 207 200 191 183 175 207 208 204 215 188 165 182 172 160 164 179 207 192 166 182 187 188 190 180 169 174 181 182 192 242 198 181 196 191 196 207 206 225 246 165 223 277 107 167 238 75 120 90 8 114 137 185 186 133 109 212 139 187 234 211 249 278 259 235 226 210 216 199 189 210 215 210 189 175 180 184 187 188 189 193 196
221 213 219 223 219 216 212 206 196 189 181 177 209 214 211 204 195 185 190 179 165 178 198 209 191 177 186 179 170 179 189 184 168 173 187 190 234 197 175 184 194 198 200 195 205 235 168 206 260 329 318 193 64 153 179 210 291 61 73 165 134 141 180 166 179 186 178 232 266 296 279 237 222 204 181 197 211 202 191 190 197 196 192 191 190 190 193 196
221 214 234 226 217 217 214 202 193 188 183 191 202 207 178 180 204 218 217 211 166 180 207 202 182 188 194 179 166 172 192 189 169 180 203 186 206 224 184 182 183 194 194 192 198 201 146 228 234 316 336 201 176 204 189 183 182 144 142 181 185 132 119 174 216 160 142 198 238 273 276 261 241 198 187 200 207 195 187 193 200 198 193 193 194 194 195 197
219 213 235 224 216 214 204 193 188 191 187 198 211 216 194 174 190 213 226 238 255 317 216 199 190 196 191 181 177 174 181 184 175 188 213 196 201 233 198 188 179 172 178 190 205 196 172 202 185 157 253 211 222 245 214 189 182 175 183 189 186 174 153 192 244 205 151 197 195 204 270 267 242 208 223 215 215 199 193 195 196 193 193 195 199 199 198 198
226 226 222 211 210 201 192 185 188 191 185 196 208 205 191 189 179 189 215 232 243 269 265 240 210 203 197 195 191 172 168 180 187 192 209 210 205 209 202 196 184 169 157 180 209 196 154 133 161 200 210 211 238 273 292 150 119 105 197 195 188 187 176 188 225 211 176 221 183 144 273 276 258 331 299 277 274 226 202 197 190 189 193 196 200 201 200 201
234 253 250 212 207 194 185 185 201 190 191 188 190 194 188 188 189 177 194 213 222 225 218 228 205 199 210 202 184 175 175 184 197 198 204 214 211 207 175 175 177 170 160 185 208 180 125 128 179 245 321 336 298 329 16 45 74 96 235 186 183 207 197 193 208 177 185 216 174 158 262 269 316 332 315 326 321 226 197 194 187 185 191 196 200 200 200 201
226 236 234 226 210 194 184 191 198 188 193 159 174 200 196 197 204 191 188 197 200 201 207 214 200 194 213 184 155 183 191 194 210 208 199 200 211 206 159 171 177 174 175 197 180 167 172 174 157 197 290 322 323 330 332 341 160 212 225 181 192 205 193 200 137 101 241 210 164 186 244 244 292 328 345 351 359 123 175 189 187 185 189 194 198 200 200 201
218 230 216 203 204 198 191 199 199 190 181 172 179 198 193 204 216 208 200 193 197 201 204 209 194 166 170 144 104 198 201 186 189 197 175 187 225 264 159 180 183 176 175 150 160 167 174 170 163 185 222 232 230 218 207 193 182 211 189 180 200 198 191 203 199 208 239 185 157 206 241 252 306 318 328 331 343 119 164 181 189 194 195 194 196 198 200 201
193 210 204 193 207 215 216 208 199 188 176 179 183 194 195 208 214 209 210 206 206 205 196 185 171 157 146 159 172 215 215 159 87 142 183 196 228 291 173 171 163 158 128 105 144 154 134 183 195 198 217 226 227 236 179 140 157 198 194 191 203 203 195 197 216 224 215 135 201 224 229 249 265 261 263 257 223 201 185 178 186 194 195 193 195 198 200 201
187 198 190 170 207 231 249 240 211 189 181 182 175 182 198 206 200 196 207 214 211 205 202 190 170 184 201 202 208 217 200 164 120 168 186 183 214 312 326 142 131 149 131 117 139 131 104 206 210 209 227 235 222 149 183 164 181 198 195 197 202 201 195 195 219 220 147 150 246 228 193 231 242 216 225 230 207 212 215 195 193 192 191 192 194 196 198 200
196 219 203 184 185 210 229 237 226 206 189 183 180 180 193 203 198 182 202 212 207 197 198 213 207 208 210 206 213 222 200 192 210 210 197 171 173 305 335 337 67 139 113 73 80 104 129 212 213 203 236 250 246 186 188 189 204 202 200 207 202 197 197 201 218 217 163 203 245 213 178 225 233 208 222 217 196 204 204 198 194 190 189 190 190 192 194 197
202 240 214 198 202 194 209 213 208 205 196 183 188 194 188 200 205 198 194 190 195 201 197 208 217 212 209 204 200 208 204 200 220 221 203 184 174 158 201 252 202 156 135 122 319 121 151 227 211 181 238 254 245 228 190 178 218 232 216 218 209 203 203 205 218 218 201 223 240 209 209 242 228 204 224 214 206 206 197 190 186 184 188 188 188 190 192 196
206 229 206 191 217 229 210 202 182 185 206 191 195 206 196 200 204 203 192 174 182 198 195 213 225 209 200 204 196 208 214 203 215 220 180 174 194 176 200 213 158 142 148 138 162 186 178 219 179 159 235 254 240 231 210 188 215 238 235 228 218 212 209 212 223 219 212 234 241 234 263 266 231 204 228 214 202 193 176 182 184 185 188 187 186 189 192 197
213 220 209 172 210 203 188 184 163 176 208 194 195 214 209 211 207 200 198 195 195 190 183 208 223 207 194 206 202 219 224 209 217 221 180 182 202 192 196 192 147 143 171 162 161 162 174 216 136 144 223 250 230 216 215 205 212 247 251 239 221 208 208 217 224 214 208 226 232 232 249 254 204 156 129 163 178 173 172 183 185 188 191 187 187 190 193 200
217 223 223 195 208 203 184 165 170 188 205 193 191 203 206 228 217 195 199 208 208 206 199 206 215 200 189 205 210 225 230 220 225 234 210 204 212 198 196 194 170 165 172 164 169 171 167 185 181 166 218 256 225 185 192 193 209 247 254 240 213 198 210 221 225 219 213 215 218 224 234 229 139 132 138 135 167 180 184 185 186 190 193 193 194 194 197 208